Hourly Data Report for June 30, 2012

All times are specified in Local Standard Time (LST). Add 1 hour to adjust for Daylight Saving Time where and when it is observed.

ABBOTSFORD A
BRITISH COLUMBIA

49°01'31.000" N
122°21'36.000" W
59.10 m
1100031
71108
YXX

Download Data

Hourly Data (June 2012)
Hourly Data Report for June 30, 2012
Temp Definition
°C
Dew Point Temp Definition
°C
Rel Hum Definition
%
Wind Dir Definition
10's deg

Wind Spd Definition
km/h
Visibility Definition
km
Stn Press Definition
kPa
Hmdx Definition


Wind Chill Definition


Weather Definition


TIME
00:00 Legend Double Dagger 16.8 15.8 94 23 9 10.0 100.90     Rain Showers
01:00 Legend Double Dagger 16.0 15.5 97   0 9.7 100.86     Rain
02:00 Legend Double Dagger 15.9 15.7 99 34 5 4.8 100.82     Rain
03:00 Legend Double Dagger 16.1 15.8 98 5 6 10.0 100.75     Rain
04:00 Legend Double Dagger 16.1 15.8 98   0 9.7 100.73     Rain
05:00 Legend Double Dagger 15.5 15.4 99 23 10 4.8 100.71     Rain
06:00 Legend Double Dagger 15.1 14.8 98 24 9 3.2 100.74     Rain
07:00 Legend Double Dagger 15.3 15.0 98 22 10 4.0 100.73     Rain
08:00 Legend Double Dagger 15.7 15.4 98 23 11 3.6 100.73     Rain
09:00 Legend Double Dagger 16.1 15.6 97 22 13 4.0 100.70     Rain
10:00 Legend Double Dagger 16.4 15.8 96 23 18 4.8 100.71     Rain
11:00 Legend Double Dagger 16.6 16.0 96 21 14 4.0 100.71     Rain Showers
12:00 Legend Double Dagger 17.2 15.6 90 21 18 6.4 100.71     Rain Showers
13:00 Legend Double Dagger 17.4 16.1 92 22 6 10.0 100.72     Cloudy
14:00 Legend Double Dagger 17.7 16.1 90 21 8 10.0 100.70     Rain Showers
15:00 Legend Double Dagger 18.0 16.2 89 21 9 10.0 100.68     Rain Showers
16:00 Legend Double Dagger 17.6 16.1 91 22 9 9.7 100.65     Rain Showers
17:00 Legend Double Dagger 17.2 15.4 89 34 4 10.0 100.62     Rain Showers
18:00 Legend Double Dagger 16.7 16.1 96   0 9.7 100.61     Rain Showers
19:00 Legend Double Dagger 16.8 16.0 95 31 5 10.0 100.61     Rain Showers
20:00 Legend Double Dagger 16.1 15.3 95 24 7 10.0 100.64     Rain Showers
21:00 Legend Double Dagger 15.7 15.4 98 21 10 4.0 100.65     Moderate Rain Showers
22:00 Legend Double Dagger 15.2 14.9 98 24 6 9.7 100.68     Rain Showers
23:00 Legend Double Dagger 14.4 13.8 96 25 8 10.0 100.70     LegendNANA

Notes on Data Quality.

Legend

  • E = Estimated
  • M = Missing
  • NA = Not Available
  • ‡ = Partner data that is not subject to review by the National Climate Archives
Date modified: